Regional Weather Roundup
Issued by NWS

Home | Current Version | Previous Version | Text Only | Print | Product List | Glossary Off
Versions: 1 2 3 4 5 6 7 8 9 10 11 12 13 14 15 16 17 18 19 20 21 22 23 24 25 26 27

000
ASUS45 KSLC 230410
RWRUT

UTAH REGIONAL WEATHER ROUNDUP
NATIONAL WEATHER SERVICE SALT LAKE CITY UT
900 PM MST MON JAN 22 2018

UTZ001>011-023>025-230500-

NORTHERN UTAH

CITY           SKY/WX    TMP DP  RH WIND       PRES   REMARKS
BRIGHAM CITY   CLOUDY    31  24  77 CALM      30.34R
HILL AFB       CLOUDY    27  18  70 E7        30.31R WCI  19
LOGAN          CLOUDY    30  25  81 SW3       30.33R
OGDEN          CLOUDY    30  21  69 S5        30.31R WCI  25
SALT LAKE CITY MOCLDY    35  20  54 CALM      30.31R
TOOELE VALLEY  CLOUDY    28  23  80 W6        30.32R WCI  22
WENDOVER       NOT AVBL
HEBER CITY     FLURRIES  25  19  80 CALM      30.27S
WEST JORDAN    CLOUDY    29  25  83 NW6       30.31R WCI  23

$$

UTZ011>015-024>027-230500-

CENTRAL/NORTHEAST UTAH

CITY           SKY/WX    TMP DP  RH WIND       PRES   REMARKS
PROVO AIRPORT  CLOUDY    27  22  81 CALM      30.33R
MOAB/CANYONLAN CLEAR     26  21  81 CALM      30.29R
DELTA          CLOUDY    21  19  93 CALM      30.32R
PRICE          MOCLDY    20  12  71 N6        30.25S WCI  12
ROOSEVELT      PTCLDY    16  12  86 SW3       30.32R
VERNAL         CLOUDY    16   9  74 NW6       30.29R WCI   7

$$

UTZ013>016-019>022-027-230500-

SOUTHERN UTAH

CITY           SKY/WX    TMP DP  RH WIND       PRES   REMARKS
BRYCE CANYON   CLEAR     12   8  84 W7        30.24R WCI   1
CEDAR CITY     PTCLDY    16  12  84 CALM      30.26R
MILFORD        MOCLDY    11   8  88 NW7       30.30R WCI   0
ST GEORGE      MOCLDY    36  27  69 S3        30.28R
HANKSVILLE     PTCLDY    28  10  47 CALM      30.32R
BLANDING         N/A     18  14  82 N6        30.32S WCI  10

$$

REGIONAL REPORTS     COLORADO/ARIZONA

CITY           SKY/WX    TMP DP  RH WIND       PRES   REMARKS
CRAIG, CO      CLOUDY    17  10  74 CALM      30.24R
GRAND JUNCTION CLEAR     15  10  80 NE3       30.29R
RIFLE, CO      CLOUDY    27  20  75 E5        30.27S WCI  22
MONTROSE, CO   CLOUDY    24  13  62 CALM      30.28F
CORTEZ, CO     CLEAR     16  12  84 NE9       30.26R WCI   4
COLORADO CITY    N/A     25  21  86 CALM      30.27R
PAGE, AZ       PTCLDY    33  12  41 CALM      30.26R
GRAND CANYON   CLEAR     16  12  84 CALM      30.23S
KINGMAN, AZ    CLEAR    N/A N/A N/A E9        30.22S
FLAGSTAFF, AZ  CLEAR     16   6  65 CALM      30.22R

$$

REGIONAL REPORTS    NEVADA/IDAHO/WYOMING

CITY           SKY/WX    TMP DP  RH WIND       PRES   REMARKS
LAS VEGAS, NV  PTCLDY    48  24  39 CALM      30.24R
ELY, NY        CLEAR     14  12  92 S13       30.26F WCI   0
ELKO, NV       CLEAR     25  24  96 SE5       30.28R WCI  19
POCATELLO, ID  CLOUDY    33  25  72 SW13      30.27R WCI  24
BURLEY, ID     PTCLDY    33  27  78 SW12      30.26S WCI  24
FORT BRIDGER,  CLOUDY    25  21  86 W16G22    30.24R WCI  12
EVANSTON, WY   CLOUDY    21  18  88 SW15      30.22S WCI   8
ROCK SPRINGS,  CLOUDY    21  15  78 W22G31    30.18R WCI   5

$$




USA.gov is the U.S. government's official web portal to all federal, state and local government web resources and services.